PGT35BN LWSK-LTFJ

Flight info

Callsign PGT35BN
Flight time 1h 0m
Altitude 19000
Route SIN T215 VELBA/N0450F370 P127 ROVDO N739 ADORU UM19 IBODU
Aircraft A321/M-SDE3FGHIRWY/LB1

Departure

Time 2026-05-09 09:47
Airport Skopje International Airport (LWSK)

Arrival

Time 2026-05-09 10:47
Airport Istanbul Sabiha Gökçen International Airport (LTFJ)
Time Latitude Longitude Altitude Speed Heading
2026-05-09 09:18 41.95960 21.62622 774 ft 0 kts 39°
2026-05-09 09:18 41.95930 21.62633 784 ft 0 kts 76°
2026-05-09 09:18 41.95946 21.62628 782 ft 0 kts 76°
2026-05-09 09:36 41.95881 21.62508 782 ft 3 kts 339°
2026-05-09 09:36 41.95865 21.62516 782 ft 1 kts 347°
2026-05-09 09:42 41.95868 21.62515 782 ft 1 kts 347°
2026-05-09 09:42 41.95870 21.62515 782 ft 0 kts 347°
2026-05-09 09:42 41.95913 21.62501 782 ft 10 kts 346°
2026-05-09 09:42 41.95959 21.62484 782 ft 11 kts 345°
2026-05-09 09:43 41.96048 21.62450 783 ft 16 kts 345°
2026-05-09 09:43 41.96177 21.62405 784 ft 21 kts 346°
2026-05-09 09:43 41.96312 21.62360 785 ft 19 kts 345°
2026-05-09 09:43 41.96442 21.62313 785 ft 21 kts 345°
2026-05-09 09:44 41.96604 21.62256 786 ft 25 kts 345°
2026-05-09 09:44 41.96764 21.62199 787 ft 24 kts 345°
2026-05-09 09:44 41.96906 21.62112 788 ft 22 kts 313°
2026-05-09 09:44 41.96998 21.61956 788 ft 21 kts 302°
2026-05-09 09:45 41.96964 21.61867 788 ft 9 kts 171°
2026-05-09 09:45 41.96946 21.61872 788 ft 0 kts 167°
2026-05-09 09:46 41.96925 21.61879 788 ft 22 kts 166°
2026-05-09 09:46 41.96515 21.62021 786 ft 96 kts 166°
2026-05-09 09:46 41.95680 21.62310 781 ft 150 kts 166°
2026-05-09 09:46 41.94617 21.62674 1235 ft 156 kts 166°
2026-05-09 09:47 41.93576 21.63042 1882 ft 155 kts 165°
2026-05-09 09:47 41.92535 21.63415 2475 ft 155 kts 165°
2026-05-09 09:47 41.91457 21.63792 2874 ft 169 kts 165°
2026-05-09 09:47 41.90249 21.64209 3083 ft 190 kts 165°
2026-05-09 09:48 41.88893 21.64679 3301 ft 210 kts 165°
2026-05-09 09:48 41.87453 21.65178 3678 ft 221 kts 165°
2026-05-09 09:48 41.85898 21.65716 4048 ft 241 kts 165°
2026-05-09 09:48 41.84200 21.66303 4445 ft 263 kts 165°
2026-05-09 09:49 41.82432 21.67081 4904 ft 273 kts 151°
2026-05-09 09:49 41.80977 21.68725 5692 ft 278 kts 126°
2026-05-09 09:49 41.80186 21.71081 6528 ft 281 kts 99°
2026-05-09 09:49 41.80266 21.73685 7333 ft 284 kts 72°
2026-05-09 09:50 41.81220 21.75994 8116 ft 286 kts 48°
2026-05-09 09:50 41.82527 21.78023 8892 ft 290 kts 47°
2026-05-09 09:50 41.83865 21.80078 9641 ft 295 kts 47°
2026-05-09 09:50 41.85226 21.82168 10238 ft 306 kts 47°
2026-05-09 09:51 41.86681 21.84411 10446 ft 329 kts 47°
2026-05-09 09:51 41.88230 21.86818 10606 ft 352 kts 47°
2026-05-09 09:51 41.89880 21.89396 10786 ft 372 kts 48°
2026-05-09 09:51 41.91586 21.92065 11335 ft 380 kts 49°
2026-05-09 09:52 41.93296 21.94783 12007 ft 384 kts 52°
2026-05-09 09:52 41.94722 21.97832 12680 ft 388 kts 63°
2026-05-09 09:52 41.95689 22.01231 13391 ft 392 kts 75°
2026-05-09 09:52 41.96165 22.04846 14092 ft 395 kts 86°
2026-05-09 09:53 41.96385 22.08546 14696 ft 400 kts 86°
2026-05-09 09:53 41.96614 22.12292 15358 ft 404 kts 85°
2026-05-09 09:53 41.96849 22.16062 15925 ft 407 kts 85°
2026-05-09 09:53 41.97088 22.19869 16475 ft 411 kts 85°
2026-05-09 09:54 41.97324 22.23709 17037 ft 415 kts 85°
2026-05-09 09:54 41.97556 22.27588 17634 ft 419 kts 85°
2026-05-09 09:54 41.97787 22.31501 18187 ft 422 kts 85°
2026-05-09 09:54 41.98018 22.35450 18665 ft 425 kts 86°
2026-05-09 09:55 41.98013 22.39441 19095 ft 429 kts 92°
2026-05-09 09:55 41.97906 22.43463 19548 ft 433 kts 92°
2026-05-09 09:55 41.97801 22.47519 19977 ft 436 kts 91°
2026-05-09 09:55 41.97695 22.51609 20408 ft 440 kts 91°
2026-05-09 09:56 41.97587 22.55738 20830 ft 444 kts 91°
2026-05-09 09:56 41.97479 22.59896 21262 ft 447 kts 91°
2026-05-09 09:56 41.97367 22.64079 21693 ft 451 kts 91°
2026-05-09 09:56 41.97249 22.68302 22120 ft 454 kts 92°
2026-05-09 09:57 41.97125 22.72568 22548 ft 458 kts 92°
2026-05-09 09:57 41.96999 22.76852 22973 ft 461 kts 91°
2026-05-09 09:57 41.96874 22.81173 23407 ft 464 kts 91°
2026-05-09 09:57 41.96749 22.85528 23797 ft 468 kts 91°
2026-05-09 09:58 41.96747 22.89905 24144 ft 470 kts 85°
2026-05-09 09:58 41.96978 22.94293 24502 ft 472 kts 85°
2026-05-09 09:58 41.97208 22.98703 24867 ft 474 kts 85°
2026-05-09 09:58 41.97436 23.03132 25215 ft 476 kts 85°
2026-05-09 09:59 41.97662 23.07579 25558 ft 479 kts 85°
2026-05-09 09:59 41.97886 23.12057 25898 ft 481 kts 85°
2026-05-09 09:59 41.98110 23.16548 26242 ft 483 kts 85°
2026-05-09 09:59 41.98336 23.21070 26589 ft 485 kts 85°
2026-05-09 10:00 41.98561 23.25601 26936 ft 488 kts 85°
2026-05-09 10:00 41.98786 23.30158 27281 ft 490 kts 85°
2026-05-09 10:00 41.99008 23.34738 27611 ft 491 kts 85°
2026-05-09 10:00 41.99228 23.39305 28061 ft 490 kts 85°
2026-05-09 10:01 41.99443 23.43872 28508 ft 489 kts 85°
2026-05-09 10:01 41.99657 23.48431 28961 ft 487 kts 85°
2026-05-09 10:01 41.99869 23.52968 29382 ft 487 kts 86°
2026-05-09 10:01 42.00080 23.57510 29812 ft 486 kts 86°
2026-05-09 10:02 42.00285 23.62036 30237 ft 484 kts 86°
2026-05-09 10:02 42.00487 23.66543 30614 ft 483 kts 86°
2026-05-09 10:02 42.00689 23.71049 31003 ft 482 kts 86°
2026-05-09 10:02 42.00890 23.75542 31398 ft 481 kts 86°
2026-05-09 10:03 42.01091 23.80022 31797 ft 479 kts 86°
2026-05-09 10:03 42.01288 23.84496 31992 ft 479 kts 86°
2026-05-09 10:03 42.01481 23.88941 32027 ft 475 kts 86°
2026-05-09 10:04 42.01861 23.97784 32028 ft 473 kts 86°
2026-05-09 10:04 42.02236 24.06616 32024 ft 473 kts 86°
2026-05-09 10:05 42.02606 24.15445 32022 ft 473 kts 86°
2026-05-09 10:05 42.02962 24.24278 32015 ft 472 kts 86°
2026-05-09 10:06 42.03316 24.33101 32010 ft 473 kts 86°
2026-05-09 10:06 42.03666 24.41931 32010 ft 473 kts 86°
2026-05-09 10:07 42.04006 24.50774 32011 ft 473 kts 86°
2026-05-09 10:07 42.04343 24.59628 31992 ft 474 kts 86°
2026-05-09 10:08 42.04669 24.68482 31989 ft 474 kts 87°
2026-05-09 10:08 42.04987 24.77261 31989 ft 474 kts 87°
2026-05-09 10:09 42.05277 24.86154 31991 ft 475 kts 90°
2026-05-09 10:09 42.04603 24.94979 31985 ft 475 kts 98°
2026-05-09 10:10 42.03713 25.03777 31991 ft 475 kts 98°
2026-05-09 10:10 42.02831 25.12588 31986 ft 475 kts 98°
2026-05-09 10:11 42.01937 25.21403 31996 ft 476 kts 98°
2026-05-09 10:11 42.01027 25.30208 31996 ft 476 kts 98°
2026-05-09 10:12 42.00100 25.39025 31998 ft 476 kts 98°
2026-05-09 10:12 41.99175 25.47841 31992 ft 477 kts 98°
2026-05-09 10:13 41.98250 25.56674 31997 ft 477 kts 98°
2026-05-09 10:13 41.97314 25.65509 31995 ft 477 kts 98°
2026-05-09 10:14 41.96369 25.74347 31993 ft 478 kts 98°
2026-05-09 10:14 41.95408 25.83189 31992 ft 479 kts 98°
2026-05-09 10:15 41.94439 25.92046 31995 ft 480 kts 98°
2026-05-09 10:15 41.93470 26.00914 31993 ft 480 kts 98°
2026-05-09 10:16 41.92485 26.09782 31995 ft 481 kts 99°
2026-05-09 10:16 41.91491 26.18662 31994 ft 481 kts 99°
2026-05-09 10:17 41.90502 26.27551 31995 ft 482 kts 98°
2026-05-09 10:17 41.89673 26.34938 31996 ft 482 kts 99°
2026-05-09 10:18 41.88645 26.43983 31994 ft 483 kts 99°
2026-05-09 10:18 41.87394 26.52828 31993 ft 483 kts 108°
2026-05-09 10:19 41.84522 26.60895 31994 ft 479 kts 126°
2026-05-09 10:19 41.80366 26.67830 31989 ft 477 kts 132°
2026-05-09 10:20 41.76120 26.74687 31991 ft 478 kts 132°
2026-05-09 10:20 41.71872 26.81546 31991 ft 479 kts 132°
2026-05-09 10:21 41.67616 26.88408 31998 ft 479 kts 132°
2026-05-09 10:21 41.63348 26.95260 31996 ft 480 kts 132°
2026-05-09 10:22 41.59069 27.02113 31996 ft 480 kts 132°
2026-05-09 10:22 41.55091 27.09283 31994 ft 483 kts 121°
2026-05-09 10:23 41.52267 27.17444 31997 ft 485 kts 115°
2026-05-09 10:23 41.49512 27.25666 32000 ft 486 kts 116°
2026-05-09 10:24 41.46741 27.33882 32000 ft 486 kts 116°
2026-05-09 10:24 41.43966 27.42110 32001 ft 487 kts 116°
2026-05-09 10:25 41.41190 27.50340 32004 ft 487 kts 116°
2026-05-09 10:25 41.38405 27.58559 32005 ft 487 kts 116°
2026-05-09 10:26 41.36666 27.65696 32012 ft 490 kts 101°
2026-05-09 10:26 41.36389 27.74718 32015 ft 489 kts 83°
2026-05-09 10:27 41.37119 27.83737 32019 ft 490 kts 83°
2026-05-09 10:27 41.37808 27.92766 32019 ft 491 kts 83°
2026-05-09 10:28 41.38323 28.01821 32022 ft 492 kts 91°
2026-05-09 10:28 41.37373 28.10831 32023 ft 492 kts 102°
2026-05-09 10:29 41.36046 28.19767 32025 ft 492 kts 101°
2026-05-09 10:29 41.34737 28.28703 31705 ft 491 kts 101°
2026-05-09 10:29 41.34078 28.33177 30927 ft 493 kts 101°
2026-05-09 10:30 41.33413 28.37655 30199 ft 494 kts 101°
2026-05-09 10:30 41.32741 28.42132 29360 ft 494 kts 102°
2026-05-09 10:30 41.32067 28.46582 28938 ft 485 kts 102°
2026-05-09 10:30 41.31406 28.50914 28805 ft 470 kts 102°
2026-05-09 10:31 41.30862 28.55150 28440 ft 461 kts 95°
2026-05-09 10:31 41.30764 28.59376 27973 ft 454 kts 89°
2026-05-09 10:31 41.30783 28.63548 27480 ft 449 kts 89°
2026-05-09 10:31 41.30797 28.67686 27099 ft 445 kts 89°
2026-05-09 10:32 41.30802 28.71795 27004 ft 444 kts 89°
2026-05-09 10:32 41.30803 28.75905 27032 ft 445 kts 89°
2026-05-09 10:32 41.30805 28.80009 26841 ft 442 kts 89°
2026-05-09 10:32 41.30805 28.84086 26270 ft 440 kts 90°
2026-05-09 10:33 41.30798 28.88155 25682 ft 438 kts 90°
2026-05-09 10:33 41.30788 28.92200 25111 ft 436 kts 90°
2026-05-09 10:33 41.30780 28.96221 24546 ft 434 kts 90°
2026-05-09 10:33 41.30774 29.00216 24001 ft 431 kts 90°
2026-05-09 10:34 41.30769 29.04197 23430 ft 428 kts 90°
2026-05-09 10:34 41.30753 29.12067 22157 ft 423 kts 90°
2026-05-09 10:34 41.30740 29.15971 21542 ft 420 kts 90°
2026-05-09 10:35 41.30728 29.19761 20921 ft 400 kts 90°
2026-05-09 10:35 41.30722 29.23374 20331 ft 381 kts 90°
2026-05-09 10:35 41.30735 29.26828 19652 ft 368 kts 90°
2026-05-09 10:35 41.30760 29.30177 18939 ft 358 kts 89°
2026-05-09 10:36 41.30788 29.33442 18237 ft 349 kts 89°
2026-05-09 10:36 41.30818 29.36637 17445 ft 342 kts 89°
2026-05-09 10:36 41.30711 29.39758 16667 ft 335 kts 101°
2026-05-09 10:36 41.30036 29.42674 15917 ft 328 kts 117°
2026-05-09 10:37 41.28831 29.45211 15180 ft 323 kts 132°
2026-05-09 10:37 41.27188 29.47234 14489 ft 323 kts 146°
2026-05-09 10:37 41.25361 29.48983 13792 ft 325 kts 146°
2026-05-09 10:37 41.23527 29.50743 13025 ft 326 kts 146°
2026-05-09 10:38 41.21716 29.52486 12286 ft 320 kts 146°
2026-05-09 10:38 41.19936 29.54203 11593 ft 312 kts 146°
2026-05-09 10:38 41.18205 29.55871 10935 ft 304 kts 146°
2026-05-09 10:38 41.16512 29.57502 10280 ft 298 kts 147°
2026-05-09 10:39 41.14848 29.59104 9589 ft 293 kts 147°
2026-05-09 10:39 41.13214 29.60677 8916 ft 287 kts 147°
2026-05-09 10:39 41.11610 29.62221 8257 ft 283 kts 147°
2026-05-09 10:39 41.10030 29.63736 7610 ft 278 kts 147°
2026-05-09 10:40 41.08479 29.65220 6970 ft 273 kts 147°
2026-05-09 10:40 41.06944 29.66678 6339 ft 268 kts 149°
2026-05-09 10:40 41.05269 29.67552 5666 ft 255 kts 179°
2026-05-09 10:40 41.03591 29.67173 5147 ft 238 kts 210°
2026-05-09 10:41 41.02372 29.65864 5026 ft 223 kts 235°
2026-05-09 10:41 41.01537 29.64172 5015 ft 217 kts 239°
2026-05-09 10:41 41.00751 29.62485 5017 ft 215 kts 240°
2026-05-09 10:41 40.99986 29.60782 5013 ft 215 kts 239°
2026-05-09 10:42 40.99227 29.59081 5011 ft 210 kts 240°
2026-05-09 10:42 40.98497 29.57441 4709 ft 206 kts 242°
2026-05-09 10:42 40.97836 29.55760 4386 ft 202 kts 244°
2026-05-09 10:42 40.97228 29.54114 4059 ft 195 kts 244°
2026-05-09 10:43 40.96647 29.52528 3751 ft 188 kts 244°
2026-05-09 10:43 40.96091 29.51004 3477 ft 181 kts 244°
2026-05-09 10:43 40.95540 29.49497 3207 ft 181 kts 244°
2026-05-09 10:43 40.95007 29.48037 2934 ft 170 kts 244°
2026-05-09 10:44 40.94508 29.46675 2668 ft 160 kts 245°
2026-05-09 10:44 40.94038 29.45392 2433 ft 152 kts 244°
2026-05-09 10:44 40.93590 29.44169 2226 ft 142 kts 243°
2026-05-09 10:44 40.93168 29.43016 1992 ft 138 kts 244°
2026-05-09 10:45 40.92751 29.41879 1773 ft 137 kts 243°
2026-05-09 10:46 40.91101 29.37374 939 ft 135 kts 243°
2026-05-09 10:46 40.90687 29.36250 769 ft 139 kts 243°
2026-05-09 10:46 40.90262 29.35090 579 ft 136 kts 243°
2026-05-09 10:46 40.89855 29.33980 373 ft 135 kts 244°
2026-05-09 10:47 40.89464 29.32917 304 ft 113 kts 244°
2026-05-09 10:47 40.89213 29.32236 304 ft 59 kts 244°
2026-05-09 10:47 40.89119 29.31887 309 ft 28 kts 266°
2026-05-09 10:47 40.89121 29.31761 310 ft 0 kts 274°
2026-05-09 10:48 40.89122 29.31760 310 ft 0 kts 274°
2026-05-09 10:48 40.89122 29.31755 308 ft 1 kts 274°
2026-05-09 10:49 40.89122 29.31744 309 ft 4 kts 274°
2026-05-09 10:49 40.89126 29.31683 307 ft 8 kts 274°
2026-05-09 10:49 40.89131 29.31580 307 ft 13 kts 274°
2026-05-09 10:49 40.89148 29.31467 307 ft 13 kts 303°
2026-05-09 10:50 40.89221 29.31430 309 ft 11 kts 22°
2026-05-09 10:50 40.89285 29.31466 309 ft 10 kts 353°
2026-05-09 10:50 40.89352 29.31428 306 ft 13 kts 334°
2026-05-09 10:50 40.89451 29.31364 310 ft 15 kts 334°
2026-05-09 10:51 40.89542 29.31306 312 ft 16 kts 334°
2026-05-09 10:51 40.89661 29.31230 314 ft 20 kts 334°
2026-05-09 10:51 40.89692 29.31210 317 ft 0 kts 334°
2026-05-09 10:51 40.89692 29.31209 317 ft 1 kts 334°
2026-05-09 10:52 40.89721 29.31191 319 ft 8 kts 334°
2026-05-09 10:52 40.89791 29.31121 316 ft 14 kts 330°
2026-05-09 10:52 40.89874 29.31067 320 ft 15 kts 334°
2026-05-09 10:52 40.89971 29.31028 321 ft 14 kts 334°
2026-05-09 10:53 40.90057 29.30973 321 ft 14 kts 334°
2026-05-09 10:53 40.90142 29.30919 321 ft 13 kts 334°
2026-05-09 10:53 40.90226 29.30880 321 ft 12 kts
2026-05-09 10:53 40.90274 29.30960 321 ft 11 kts 64°
2026-05-09 10:54 40.90305 29.31045 321 ft 10 kts 64°
2026-05-09 10:54 40.90333 29.31122 321 ft 9 kts 64°
2026-05-09 10:54 40.90359 29.31190 321 ft 8 kts 64°
2026-05-09 10:54 40.90388 29.31271 320 ft 13 kts 64°
2026-05-09 10:55 40.90428 29.31380 320 ft 13 kts 64°
2026-05-09 10:55 40.90466 29.31482 319 ft 12 kts 64°
2026-05-09 10:55 40.90505 29.31523 321 ft 7 kts 357°
2026-05-09 10:55 40.90545 29.31503 321 ft 6 kts 334°
2026-05-09 10:56 40.90569 29.31488 321 ft 2 kts 334°
2026-05-09 10:56 40.90575 29.31483 321 ft 0 kts 334°
2026-05-09 10:58 40.90575 29.31484 321 ft 0 kts 334°